Flag for Spain Weather past 2 weeks in Las Palmas, Canary Islands, Spain

Now
70 °F

Passing clouds.


Feels Like: 70 °F
Forecast: 70 / 77 °F
Wind: 10 mph from North

Location: Las Palmas De Gran Canaria / Gando

Current Time: Jul 26, 2014 at 2:46:28 AM

Latest Report: Jul 26, 2014 at 2:00 AM


Visibility: N/A

Pressure: 30.04 "Hg

Humidity: 73%

Dew point: 61 °F

Location of Las PalmasLocation

Historic Weather in Las Palmas — Graph

°F

Las Palmas temperature yesterday

Maximum temperature yesterday: 79 °F (at 12:30 PM)
Minimum temperature yesterday: 72 °F (at 4:30 AM)
Average temperature yesterday: 75 °F

Past Weeks' High & Low Weather Summary

 TemperatureHumidityPressure
High82 °F (Jul 22, 3:00 PM)88% (Jul 12, 7:30 AM)30.15 "Hg (Jul 12, 7:30 AM)
Low70 °F (Jul 11, 3:00 AM)48% (Jul 23, 5:00 PM)29.98 "Hg (Jul 15, 3:00 PM)
Average74 °F66%30.07 "Hg
* Reported Jul 11 1:00 AM — Jul 26 1:30 AM, Las Palmas, Weather by CustomWeather, © 2014

Note: Actual official high and low records may vary slightly from our data, if they occured in-between our weather recording intervals... More about our weather records

Advertising

Las Palmas weather history for previous 24 hours

 ConditionsComfort  
Time TempWeatherWind HumidityBarometerVisibility
1:30 AM
Jul 26
72 °FPassing clouds.10 mph69%30.04 "HgN/A
1:00 AM72 °FPassing clouds.10 mph69%30.04 "HgN/A
12:30 AM72 °FPassing clouds.12 mph69%30.04 "HgN/A
12:00 AM72 °FPassing clouds.9 mph69%30.04 "HgN/A
11:30 PM
Jul 25
72 °FPassing clouds.10 mph69%30.04 "HgN/A
11:00 PM72 °FPassing clouds.14 mph69%30.04 "HgN/A
10:30 PM72 °FPassing clouds.16 mph69%30.04 "HgN/A
10:00 PM72 °FPassing clouds.16 mph73%30.01 "HgN/A
9:30 PM72 °FPassing clouds.20 mph73%30.01 "HgN/A
9:00 PM73 °FPassing clouds.21 mph65%30.01 "HgN/A
8:30 PM73 °FPassing clouds.23 mph65%30.01 "HgN/A
8:00 PM75 °FPassing clouds.25 mph61%29.98 "HgN/A
7:30 PM75 °FPassing clouds.25 mph61%29.98 "HgN/A
7:00 PM77 °FPassing clouds.29 mph61%29.98 "HgN/A
6:30 PM79 °FPassing clouds.28 mph58%29.98 "HgN/A
6:00 PM77 °FPassing clouds.30 mph65%29.98 "HgN/A
5:30 PM77 °FPassing clouds.29 mph65%29.98 "HgN/A
5:00 PM77 °FPassing clouds.28 mph65%29.98 "HgN/A
4:30 PM77 °FPassing clouds.25 mph61%29.98 "HgN/A
4:00 PM79 °FPassing clouds.25 mph58%30.01 "HgN/A
3:30 PM79 °FSunny.25 mph61%30.01 "Hg10 mi
3:00 PM79 °FPassing clouds.24 mph61%30.01 "HgN/A
2:30 PM79 °FPassing clouds.22 mph61%30.01 "HgN/A
2:00 PM79 °FPassing clouds.24 mph58%30.04 "HgN/A
1:30 PM79 °FPassing clouds.25 mph61%30.04 "HgN/A
1:00 PM79 °FPassing clouds.25 mph61%30.04 "HgN/A
12:30 PM79 °FPassing clouds.23 mph58%30.04 "HgN/A
12:00 PM77 °FPassing clouds.23 mph65%30.04 "HgN/A
11:30 AM75 °FScattered clouds.20 mph65%30.04 "HgN/A
11:00 AM75 °FScattered clouds.21 mph69%30.04 "HgN/A
10:30 AM77 °FScattered clouds.22 mph65%30.04 "HgN/A
10:00 AM75 °FScattered clouds.18 mph65%30.04 "HgN/A
9:30 AM75 °FScattered clouds.22 mph69%30.01 "HgN/A
9:00 AM73 °FScattered clouds.22 mph69%30.01 "HgN/A
8:30 AM73 °FPartly sunny.23 mph74%30.01 "HgN/A
8:00 AM72 °FPassing clouds.18 mph78%30.01 "HgN/A
7:30 AM72 °FPassing clouds.16 mph78%30.01 "HgN/A
7:00 AM72 °FPassing clouds.20 mph83%30.01 "HgN/A
6:30 AM73 °FPassing clouds.15 mph78%30.01 "HgN/A
6:00 AM72 °FPassing clouds.16 mph78%30.01 "HgN/A
5:30 AM72 °FPassing clouds.15 mph78%30.01 "HgN/A
5:00 AM73 °FPassing clouds.16 mph78%30.01 "HgN/A
4:30 AM72 °FPassing clouds.16 mph78%30.01 "HgN/A
4:00 AM73 °FPassing clouds.21 mph74%30.01 "HgN/A
3:30 AM73 °FPassing clouds.18 mph65%30.01 "HgN/A
3:00 AM73 °FPassing clouds.17 mph65%30.04 "HgN/A
2:30 AM73 °FPassing clouds.16 mph69%30.04 "HgN/A
2:00 AM73 °FPassing clouds.17 mph74%30.04 "HgN/A
Weather by CustomWeather, © 2014

See weather overviewHow to use our weather pages